Location: Franzen
(48.6167°N, 15.3833°E)
Time: 12:45:28
(UTC+00:00)

Timation 2 Rocket - Pass Details

Date: 22 April 2021
Orbit: 907 x 1074 km, 70.0° (Epoch: 16 May)

Event Time Altitude Azimuth Distance (km) Brightness Sun altitude
Rises 20:19:17 0° 219° (SW) 3,767 7.0 -19.7°
Reaches altitude 10° 20:21:56 10° 222° (SW) 2,795 6.3 -20.0°
Maximum altitude 20:28:24 64° 304° (WNW) 1,087 4.4 -20.6°
Drops below altitude 10° 20:34:38 10° 26° (NNE) 2,693 6.6 -21.3°
Sets 20:37:10 0° 29° (NNE) 3,620 7.3 -21.5°
